Simultaneous Nadir Overpasses (SNOs) Predictions

Prediction of SNOs near equator between AQUA and NPP Satellite Orbit:

Table of predicted SNOs near equator for the next 14.0 days since TLE Epoch: 1/26/2013
Index Date (AQUA) Time (AQUA) AQUA Lat,Lon Date (NPP) Time (NPP) NPP Lat,Lon Distance(km) Time Diff (sec)
1 01/26/2013 17:18:37 -18.02, 121.54 01/26/2013 17:08:37 -18.06, 120.80 77.43 600
2 01/26/2013 18:03:44 2.09, -67.36 01/26/2013 17:54:52 1.94, -68.20 94.06 532
3 01/29/2013 09:31:26 -4.90,-119.69 01/29/2013 09:21:48 -4.74,-120.36 75.97 578
4 02/01/2013 01:47:26 -3.13, -3.43 02/01/2013 01:38:17 -2.96, -4.20 87.59 549
5 02/03/2013 17:15:23 6.05, -55.84 02/03/2013 17:05:26 5.92, -56.44 68.40 597
6 02/03/2013 18:03:30 -1.50, 112.79 02/03/2013 17:54:48 -1.30, 111.92 98.63 522
7 02/06/2013 09:31:29
